Wind_Speed
24 25 25 25 25 25 25 24 23 24 23 22 21 21 21 20 19 19 18 18 18 18 17 15 15 15 16 17 16 15 15 14 15 17 13 8 14 21 22 24 26 29 29 27 25 22 18 15 11 10 10 8 6 6 8 9 8 7 6 9 9 5 2 1 3 2 9 14 14 16 18 18 17 14 9 7 5 4 10 11 10 11 8 8 11 15 17 17
23 24 25 25 26 25 25 25 24 24 23 23 22 22 21 21 20 19 19 18 18 18 17 17 15 14 15 16 16 15 14 14 13 13 13 12 15 17 20 24 27 29 29 28 26 22 19 14 12 13 12 10 7 7 9 8 9 9 9 12 8 3 6 7 5 4 11 13 14 17 15 13 13 12 10 9 10 10 12 12 10 11 11 13 16 17 16 16
22 22 23 24 25 25 26 25 25 24 24 23 23 22 22 21 21 20 20 19 18 18 18 17 16 15 16 16 16 16 15 14 11 11 13 14 14 14 17 22 26 27 28 28 25 23 19 13 13 14 13 13 10 9 11 11 11 12 13 16 6 5 7 9 6 4 7 11 16 17 13 13 12 10 11 9 10 11 11 10 9 9 13 18 18 17 17 17
20 21 21 23 23 24 24 25 25 25 25 24 23 23 22 22 21 21 20 20 19 18 18 17 16 16 16 16 15 15 15 14 11 10 11 11 12 13 15 19 24 26 26 27 27 25 21 17 16 16 15 15 12 12 15 15 13 12 16 19 5 2 6 9 9 6 6 10 17 18 15 13 10 10 12 10 13 11 8 6 3 4 12 19 18 18 18 18
18 19 19 20 21 22 22 23 24 25 25 25 24 24 23 22 22 21 21 20 20 19 18 17 17 17 17 17 15 14 15 13 8 5 6 8 10 13 14 18 22 23 24 27 28 26 23 21 20 18 19 17 14 15 17 16 13 13 17 18 12 11 13 9 10 11 9 12 19 18 18 14 10 13 13 14 17 8 4 2 2 0 8 15 17 18 18 18
19 19 19 19 19 20 21 21 22 23 24 24 24 24 24 23 22 22 21 21 21 20 19 18 17 17 18 18 16 15 14 11 6 2 3 4 9 13 14 17 20 22 24 27 29 28 25 23 23 23 22 19 18 18 17 15 13 16 18 18 19 20 19 13 11 15 12 16 21 18 19 16 11 15 15 18 19 12 7 2 3 4 5 11 15 17 18 18
21 20 20 19 19 19 20 20 21 21 22 23 23 24 24 24 24 23 22 22 21 21 20 19 18 18 18 19 17 16 14 10 7 7 6 5 8 13 15 17 20 23 25 27 28 29 27 25 25 24 23 22 21 19 16 13 14 19 21 18 19 19 18 18 15 15 12 15 20 17 19 17 11 15 16 19 20 15 9 3 1 5 5 10 15 16 17 17
22 22 22 21 21 20 20 20 20 20 21 22 22 23 23 23 24 24 23 23 22 23 21 20 20 19 19 19 18 17 13 9 8 9 8 8 9 13 16 18 20 23 24 25 26 27 27 27 27 24 25 24 20 18 16 13 17 22 23 17 18 18 16 21 21 15 12 16 18 17 18 14 7 11 17 21 23 17 11 7 5 5 6 11 15 17 18 17
24 24 23 23 22 22 21 21 20 20 20 21 21 22 22 23 23 24 24 24 23 24 22 22 21 20 20 19 20 16 9 6 6 7 8 8 10 13 16 18 20 23 24 25 25 26 28 28 27 25 26 23 20 19 15 16 20 20 20 18 18 20 18 21 26 19 15 20 18 17 17 14 8 11 19 22 24 21 15 10 8 5 7 11 15 17 19 18
25 25 25 24 24 23 23 22 21 21 20 20 20 21 22 22 23 23 24 24 24 25 24 23 22 23 21 20 21 14 5 4 5 8 8 9 11 13 14 17 20 22 24 25 26 27 28 27 24 24 24 23 23 22 18 20 21 17 19 21 19 18 17 18 27 24 19 23 18 15 19 18 13 13 21 22 22 22 17 12 10 6 8 12 15 18 19 18
26 26 26 26 25 25 25 24 23 22 21 20 20 20 21 22 22 23 23 23 24 25 25 24 24 25 22 23 23 14 7 7 8 11 13 13 12 12 14 17 20 22 24 25 26 26 25 23 21 22 25 25 24 23 22 22 21 20 22 22 19 16 14 16 24 26 25 26 18 14 19 18 15 15 17 19 20 21 17 13 10 7 9 13 15 18 19 20
27 27 26 26 26 26 26 26 24 23 22 21 20 20 21 21 22 23 22 22 23 26 26 25 26 25 25 26 17 8 8 9 11 14 17 15 10 11 14 17 19 21 23 25 25 25 24 23 22 25 26 25 24 22 22 22 23 23 21 22 19 16 14 13 20 30 30 27 21 17 22 20 18 17 15 16 20 19 16 13 9 7 10 12 14 18 20 21
26 27 27 27 26 26 27 27 26 24 23 22 21 21 21 21 22 23 22 21 23 26 25 26 27 27 28 20 6 8 11 10 13 17 17 14 9 10 13 13 15 19 22 24 24 24 23 23 24 26 25 23 25 23 22 21 22 22 19 21 20 18 14 9 16 33 32 27 25 22 24 23 20 18 16 17 19 20 17 15 10 8 11 13 14 16 19 21
25 26 26 27 26 26 26 27 27 26 24 23 21 22 21 21 23 23 21 20 23 25 25 26 26 28 28 11 9 12 15 17 18 15 14 12 9 9 13 12 12 17 22 23 24 23 22 23 24 26 26 24 24 24 25 23 21 20 19 21 18 19 13 10 12 29 35 27 28 23 19 23 21 18 18 19 20 21 20 17 12 9 12 14 13 15 18 19
24 25 25 26 26 25 26 27 27 26 25 24 23 22 21 22 23 23 22 21 23 23 24 26 26 30 28 10 8 15 19 20 17 12 14 14 10 8 11 12 12 16 22 23 24 22 21 23 25 27 29 26 23 22 26 25 22 20 20 21 17 16 13 10 13 27 35 30 31 24 16 21 23 19 19 21 22 22 20 18 14 11 11 14 14 15 17 18
23 24 24 25 25 25 25 26 27 26 24 25 24 23 22 24 24 23 23 22 23 23 23 26 25 28 27 12 9 17 20 18 12 12 17 18 14 9 8 10 11 13 20 24 24 24 23 24 26 28 29 28 25 24 24 24 25 23 21 22 19 16 15 11 12 30 35 30 34 26 15 21 23 21 21 23 24 24 21 19 16 13 11 14 15 15 17 18
24 24 23 24 24 25 25 25 26 25 24 25 25 23 24 26 25 24 24 23 24 24 24 25 25 28 25 14 11 12 11 13 13 14 18 18 14 11 11 12 12 11 15 20 24 26 27 25 24 27 28 29 28 25 23 24 28 27 24 24 23 19 18 17 13 31 34 28 33 28 17 21 23 23 25 26 26 25 23 21 18 15 12 12 15 15 18 18
25 25 23 23 24 24 24 25 26 25 24 25 26 25 24 26 26 25 26 25 25 24 25 24 25 26 20 13 13 12 9 10 14 14 16 17 14 13 16 16 15 13 12 16 22 25 28 27 25 25 27 30 30 29 27 29 31 29 26 26 24 22 20 19 14 22 33 29 30 29 20 21 25 25 28 28 27 27 25 22 18 17 14 11 13 16 18 18
28 27 25 24 24 24 24 24 25 24 24 24 26 27 26 26 26 26 27 28 27 26 25 24 25 25 18 11 9 12 16 15 16 17 17 16 15 16 20 20 18 16 16 18 22 24 27 28 28 29 32 32 31 32 32 34 32 28 26 26 25 23 20 17 14 17 30 28 28 31 24 24 27 28 30 29 28 27 24 21 18 17 17 13 12 15 18 18
31 30 28 26 25 25 25 25 25 24 24 24 25 26 27 27 27 29 31 30 28 28 27 26 26 26 21 16 10 12 18 18 18 18 15 12 13 16 22 24 21 20 23 23 23 24 25 28 34 38 37 34 31 30 30 32 32 29 28 27 27 26 21 20 16 18 28 29 30 31 24 27 29 28 29 28 28 28 25 23 20 20 20 17 13 13 17 17
31 31 30 27 26 26 25 25 25 25 25 25 25 25 26 28 29 31 34 32 27 28 29 27 28 28 22 17 15 16 16 18 21 20 18 13 13 15 22 26 26 27 28 25 22 21 24 32 39 40 36 33 30 28 27 28 30 31 31 31 30 29 26 24 20 20 30 33 32 32 25 27 29 26 28 29 31 30 27 26 22 20 22 21 17 13 14 15
29 30 30 28 26 25 25 25 25 26 25 26 25 25 25 27 28 30 35 33 25 24 27 26 27 28 22 15 15 21 22 22 22 20 20 19 20 19 20 25 31 33 30 26 25 25 29 36 37 35 33 31 29 28 27 28 29 31 34 34 34 33 29 28 26 21 31 36 31 33 28 26 28 26 28 30 32 31 28 27 23 19 22 23 21 15 13 15
28 29 29 28 26 24 24 25 25 25 26 26 25 24 25 25 26 28 32 36 29 23 25 25 26 27 23 18 15 25 32 29 23 22 23 24 26 23 20 24 29 32 32 32 32 33 34 34 32 31 30 29 29 29 27 27 29 31 34 35 36 36 31 30 26 18 27 37 30 32 31 28 28 27 32 31 27 29 28 27 23 20 21 21 19 16 14 16
28 28 28 27 25 23 23 24 24 24 26 26 24 24 23 21 24 28 30 36 36 28 22 22 26 27 22 18 17 26 34 32 28 26 26 26 26 26 24 23 25 32 35 33 34 36 36 30 25 26 28 28 29 29 29 30 31 32 34 36 39 40 36 32 27 19 21 32 29 31 31 29 33 31 34 35 28 28 29 26 25 23 23 21 20 19 17 17
27 27 28 27 25 22 20 22 22 23 25 24 22 22 22 20 23 28 29 32 37 32 25 24 26 24 21 21 22 24 29 34 34 31 30 28 27 27 26 22 25 32 34 33 32 34 37 31 23 22 25 29 29 30 33 33 34 33 34 39 41 42 38 33 30 22 18 24 27 30 24 21 35 35 32 36 35 33 31 28 28 27 26 27 26 24 22 20
28 27 27 27 26 22 18 20 21 21 23 22 22 21 20 20 20 24 26 28 35 33 25 22 19 18 21 24 25 23 27 33 34 33 33 30 29 28 27 26 27 30 29 29 30 32 35 33 28 24 23 27 31 32 34 34 34 36 37 39 41 42 39 34 32 26 18 19 24 29 22 15 31 39 33 35 37 37 34 30 31 30 28 29 29 28 26 24
30 29 28 27 27 24 17 18 20 20 21 20 22 20 18 20 19 21 21 18 22 23 17 13 10 12 16 19 23 28 27 25 28 36 38 33 31 31 30 29 29 29 27 25 29 35 33 30 31 31 28 29 34 35 32 33 35 39 38 35 37 40 39 36 36 32 27 25 23 28 31 22 27 41 39 36 38 38 36 34 34 33 30 29 30 30 29 27
32 31 31 28 28 28 20 18 20 19 19 19 20 19 17 17 16 15 11 5 7 9 7 7 7 10 14 16 22 28 26 20 18 29 37 35 33 34 34 33 31 30 28 29 34 35 30 30 31 33 35 35 37 34 28 30 36 41 37 31 33 36 35 36 35 35 34 31 26 28 32 20 19 39 43 38 40 38 36 37 37 36 34 32 33 32 31 29
34 33 33 29 27 28 24 22 23 18 18 19 18 19 18 15 14 9 3 3 6 7 7 7 8 11 15 17 19 23 27 25 14 14 30 39 35 35 36 33 31 29 29 31 35 32 28 29 28 28 36 38 38 33 27 30 34 34 32 30 32 33 33 33 31 35 35 25 25 31 32 18 11 31 46 43 43 40 37 38 38 37 36 36 36 34 32 31
36 34 35 32 28 26 23 24 25 20 18 19 18 18 17 15 14 9 6 8 8 6 8 10 11 12 14 17 19 21 26 29 20 12 27 41 36 36 36 30 29 30 31 31 33 33 29 26 25 27 32 35 36 33 31 32 28 24 27 30 31 31 35 36 34 36 27 15 23 32 36 30 12 22 46 46 41 39 37 39 39 39 38 37 36 34 33 34
38 36 35 34 32 28 22 22 25 23 20 18 17 17 16 15 15 11 6 12 13 7 6 7 11 16 16 15 17 21 23 27 26 18 28 41 38 38 37 31 31 32 32 34 34 34 32 28 27 30 30 29 30 32 31 32 30 28 29 30 29 29 31 32 33 32 15 7 22 29 32 38 22 22 42 45 38 35 34 38 38 39 40 39 37 35 35 36
40 39 35 33 33 30 24 22 22 22 21 18 16 16 16 14 18 20 12 9 9 8 11 8 9 14 17 18 17 17 20 25 28 24 29 40 42 44 43 39 39 35 32 38 37 34 36 36 32 29 30 30 29 31 32 32 33 35 37 34 25 17 17 17 16 15 8 10 24 27 25 33 34 36 41 39 37 35 34 35 34 34 37 38 38 35 36 38
42 41 36 32 32 30 26 24 22 22 21 18 15 16 18 12 14 24 24 16 6 5 12 12 13 15 13 20 23 19 19 22 26 28 28 32 40 47 47 43 43 38 32 35 37 32 31 34 36 33 32 34 34 34 35 36 37 39 43 41 27 10 6 8 6 4 7 14 24 30 24 22 32 43 43 39 38 36 35 35 31 31 33 36 36 34 35 38
42 41 38 32 29 29 26 24 23 23 20 19 18 18 22 18 12 13 18 22 19 11 11 14 16 19 14 16 22 24 24 22 24 32 29 28 38 48 49 47 45 40 33 30 33 34 26 24 34 39 37 37 37 38 35 33 37 40 42 41 35 26 15 7 5 4 4 8 18 26 19 13 22 34 37 37 37 36 35 34 32 32 31 31 32 33 36 38
42 40 38 31 27 28 27 23 23 23 20 20 21 23 29 29 19 10 6 12 18 22 29 31 25 24 21 17 17 22 27 24 22 31 34 31 37 45 49 51 49 44 37 29 29 34 31 29 35 36 37 40 39 38 34 31 34 36 39 40 41 43 32 12 6 9 8 5 11 19 14 12 21 27 28 30 35 38 38 35 35 33 32 30 30 33 36 36
41 38 34 27 25 28 27 24 24 24 22 21 24 32 39 34 24 17 10 8 11 20 31 33 25 23 24 21 18 18 24 28 25 28 36 37 37 40 42 45 48 47 44 36 29 28 28 34 38 33 32 38 39 37 35 33 31 31 39 46 43 42 38 20 10 13 13 6 10 17 15 15 21 22 24 27 32 38 39 38 38 34 32 33 32 32 34 35
41 37 29 22 24 28 25 24 25 25 24 25 30 38 40 36 30 24 19 16 15 15 20 23 18 13 13 14 15 11 13 25 32 32 36 37 36 40 42 40 42 45 47 43 33 28 25 29 36 35 32 35 38 37 36 35 32 31 39 46 38 31 33 29 14 8 10 5 7 17 19 17 16 17 23 27 28 33 38 40 40 37 35 36 34 32 33 34
40 36 26 17 21 24 23 25 26 26 26 30 37 40 36 36 35 31 27 24 22 21 22 23 20 15 11 12 13 10 5 12 24 31 36 37 35 39 42 42 41 41 44 44 38 33 27 24 28 31 31 31 32 35 38 38 36 34 35 38 34 25 25 28 17 7 8 5 3 12 18 19 20 19 21 27 27 29 35 39 40 39 37 36 36 34 33 34
38 34 22 11 18 23 26 28 27 27 30 35 40 39 36 35 34 32 31 29 28 30 29 25 20 19 18 19 21 20 15 14 12 17 24 31 35 38 39 40 42 40 41 44 44 38 30 24 24 25 26 27 31 37 42 43 39 36 35 34 34 30 27 30 24 13 9 4 3 8 11 16 25 25 22 24 26 26 30 37 40 39 37 36 35 34 34 37
35 32 17 7 19 26 29 30 27 28 33 38 38 36 34 33 32 31 31 30 31 33 30 24 21 24 26 26 28 27 25 24 21 18 19 21 28 35 36 36 39 41 39 40 45 43 37 30 26 26 26 29 36 40 43 46 42 41 43 40 36 33 27 26 30 28 18 6 3 5 6 14 27 29 24 20 20 21 26 33 38 37 36 37 35 33 35 37
32 30 15 7 22 28 29 28 26 28 32 34 34 33 32 30 28 27 26 27 30 33 32 28 27 31 31 31 31 29 27 29 26 25 24 20 20 25 29 33 36 38 38 41 45 46 43 37 31 30 31 34 38 38 39 45 44 43 47 46 41 37 26 16 17 27 28 16 8 5 5 13 25 29 28 23 19 19 22 29 37 36 35 37 36 34 35 36
30 28 13 9 22 25 26 27 24 24 27 28 27 28 27 24 21 20 19 21 25 29 31 31 31 31 31 33 35 31 28 29 28 26 28 25 20 18 17 25 34 37 38 42 44 44 44 42 37 35 38 37 33 31 32 39 44 44 45 45 43 41 36 23 9 11 21 23 20 13 8 13 23 27 26 26 23 21 22 28 35 37 36 37 35 33 34 35
29 25 10 7 17 18 19 24 24 24 24 25 25 24 24 22 20 19 17 17 19 21 24 27 29 29 28 29 32 31 30 33 33 29 29 30 26 21 13 17 26 34 41 44 43 41 41 43 39 35 39 42 38 34 31 33 41 47 48 46 44 45 45 37 23 15 16 20 22 14 9 18 28 27 24 26 26 20 21 28 33 34 36 38 37 34 34 35
28 23 9 4 13 14 10 10 14 20 22 21 21 21 23 23 21 21 20 19 21 23 24 25 24 25 26 26 28 27 25 28 32 27 26 28 26 26 22 20 18 21 32 43 45 44 42 43 40 27 20 28 34 32 31 36 42 48 51 50 46 47 47 42 36 28 19 21 23 14 10 22 32 31 29 31 28 18 16 25 31 36 39 37 37 37 34 33
26 23 14 9 12 12 6 5 8 13 16 17 18 18 19 21 19 18 19 20 22 22 22 22 20 20 24 26 29 30 24 24 27 24 26 32 30 30 30 27 24 20 21 27 36 46 49 47 44 31 16 14 17 19 26 38 42 41 45 50 50 49 48 43 37 30 23 25 27 19 15 23 31 33 33 36 36 27 19 18 24 35 45 40 36 39 37 32
23 22 21 17 12 6 6 5 8 10 10 14 18 18 18 20 19 19 18 18 19 18 18 20 18 19 23 25 29 30 26 27 28 22 25 33 34 34 33 30 30 28 21 16 17 33 48 52 53 48 38 34 30 24 25 32 37 37 38 43 50 51 50 48 41 34 29 27 31 32 25 21 24 27 28 34 40 39 34 25 20 26 41 41 35 38 39 33
21 19 21 22 14 4 3 5 8 12 13 15 17 16 17 19 20 22 23 20 21 22 24 24 19 17 21 23 24 25 23 26 32 26 27 35 39 40 40 35 31 29 26 19 11 17 32 43 54 58 52 49 47 40 32 28 29 36 39 40 46 50 51 50 46 41 33 24 28 39 37 29 25 24 25 28 32 37 40 35 23 20 31 37 33 36 39 34
19 18 17 18 16 13 12 10 11 17 19 17 17 16 16 16 15 16 19 20 22 21 22 24 21 17 17 19 21 22 23 24 29 29 28 34 41 44 45 42 36 33 29 26 20 15 19 28 45 56 54 52 50 44 41 35 25 28 38 42 44 48 51 51 48 46 41 31 30 36 38 37 34 27 25 26 27 31 31 29 25 21 25 33 35 35 38 36
17 18 16 15 16 18 20 18 17 19 19 18 18 16 15 15 13 11 12 15 20 19 13 15 16 13 15 21 22 22 22 22 25 27 26 29 33 36 38 40 38 33 28 27 24 16 16 22 30 45 54 54 50 45 43 43 34 28 35 43 42 44 49 50 48 45 42 39 35 32 33 38 37 31 25 22 24 28 23 19 25 28 27 32 36 36 37 35
15 16 16 17 18 18 18 18 19 19 18 17 16 14 14 15 15 14 14 14 17 19 15 13 16 15 16 20 23 24 23 22 26 28 26 28 30 26 27 31 31 29 22 19 18 12 10 14 19 33 47 50 52 52 45 44 42 32 30 36 42 44 46 47 47 43 40 39 34 31 32 36 37 35 31 24 23 23 18 15 22 31 34 34 34 32 32 32
14 14 16 19 21 19 18 18 18 20 20 17 14 14 13 13 14 16 18 17 15 17 17 15 19 21 21 21 23 26 27 25 29 31 28 30 32 26 24 25 24 24 22 15 13 10 9 7 11 20 35 45 49 51 48 47 45 37 33 33 36 41 44 45 44 40 36 35 34 33 34 34 35 37 36 34 31 28 24 17 15 22 32 36 33 30 28 28
14 14 14 18 21 19 18 19 18 18 19 16 14 15 13 11 13 16 18 18 16 16 16 13 16 21 24 25 24 26 29 29 30 32 31 32 34 30 26 24 21 24 24 19 16 14 11 10 10 12 21 38 45 47 51 47 35 33 41 40 31 33 38 39 41 41 35 31 33 36 36 34 33 34 36 37 35 31 30 26 17 15 22 27 27 24 20 20
Wind_Direction
283 282 282 282 282 282 282 283 284 286 287 288 289 291 292 293 295 297 299 300 303 305 307 307 304 300 294 291 288 284 279 271 265 259 244 221 228 224 218 216 214 218 221 224 226 227 230 231 234 229 232 236 224 237 224 199 169 163 209 244 255 249 273 186 179 180 160 150 148 168 174 167 168 179 200 205 185 184 178 165 153 157 160 192 193 171 162 161
285 283 282 281 280 280 279 280 280 281 282 284 285 286 288 289 291 293 295 296 298 299 302 306 306 303 297 295 294 290 286 279 269 260 246 231 233 229 220 217 212 213 217 221 225 226 230 229 230 232 232 233 217 214 208 191 193 192 206 231 234 163 136 135 144 168 163 155 153 170 186 199 203 202 209 209 192 195 196 185 178 172 168 184 186 174 168 166
289 287 286 283 282 280 279 278 278 277 278 279 280 282 283 284 286 288 290 292 293 294 296 300 303 303 298 296 297 295 293 288 278 268 256 238 235 232 220 218 212 210 212 215 219 221 222 213 214 225 227 230 218 208 204 195 211 216 225 235 216 120 156 156 174 220 180 166 166 178 202 213 217 220 217 213 201 208 215 200 193 193 184 181 182 180 173 168
292 290 288 286 285 283 282 280 278 277 276 275 276 277 279 280 281 283 285 287 288 289 291 293 298 299 298 298 298 297 299 295 284 274 267 246 233 226 212 213 211 206 207 210 212 213 212 206 210 215 220 226 218 222 215 198 210 223 233 239 230 95 216 187 186 226 222 177 168 181 197 198 207 219 221 212 195 206 229 224 235 232 194 183 181 183 177 171
297 294 291 289 287 286 285 283 281 279 277 275 274 274 275 276 277 278 280 282 284 285 286 289 291 292 294 296 297 299 301 302 300 274 266 252 225 209 201 206 207 203 203 207 209 210 208 208 213 213 219 222 214 227 217 196 215 237 241 248 263 268 252 225 193 207 217 176 170 192 201 198 200 207 229 227 209 230 297 308 0 291 197 191 187 183 179 176
303 301 299 295 292 289 287 285 283 281 279 277 275 274 273 273 274 275 276 278 280 281 283 284 285 287 289 291 295 297 296 303 317 241 230 246 210 194 193 198 200 199 199 204 206 208 208 207 214 217 225 226 220 227 210 197 231 255 258 263 273 270 258 247 203 200 205 173 180 203 205 202 205 205 234 235 224 260 298 339 79 133 191 199 193 187 182 181
307 306 305 303 300 297 293 289 286 284 282 279 277 275 272 271 271 272 273 274 276 277 278 280 281 282 283 286 289 290 295 302 289 245 229 240 213 193 190 192 195 197 198 202 203 207 209 209 217 222 230 230 228 225 206 209 241 257 264 265 274 276 260 245 214 203 199 177 190 201 197 205 219 210 221 220 220 248 251 235 148 165 195 198 195 195 187 183
307 306 306 306 305 303 301 297 292 288 284 282 279 276 273 271 270 269 269 271 273 274 274 276 276 277 279 282 284 287 302 300 266 250 235 226 215 199 196 194 196 198 198 201 202 206 207 211 218 222 230 229 228 222 206 225 242 249 261 266 276 282 269 240 223 220 197 176 190 198 198 204 221 213 210 209 213 228 225 208 206 202 212 198 193 196 192 185
307 307 307 306 306 305 304 302 299 294 290 286 282 279 276 273 270 268 267 267 269 271 271 272 273 274 274 276 280 284 303 300 257 250 241 223 214 205 203 202 200 199 197 198 199 202 204 211 217 220 230 230 232 231 222 241 242 242 262 279 287 289 284 240 216 219 197 176 185 197 198 191 191 203 205 214 215 213 215 212 208 226 229 203 191 196 196 188
307 307 306 307 306 305 304 303 302 300 296 292 287 283 279 276 272 268 266 264 265 267 268 269 269 270 269 270 273 273 279 278 236 226 228 224 224 218 211 210 207 201 197 197 198 201 204 208 212 216 225 228 232 236 233 242 244 249 274 284 280 278 282 247 218 216 194 177 182 188 188 192 201 202 198 210 218 210 208 213 217 240 233 207 193 193 196 193
308 307 306 306 306 306 306 304 304 303 301 299 294 288 283 279 275 271 267 264 263 264 264 266 266 267 267 265 266 263 247 232 217 218 225 226 225 221 216 215 211 205 199 198 199 202 204 202 204 210 215 222 228 233 236 242 250 260 276 280 274 265 266 261 234 214 189 180 186 181 179 193 206 207 204 201 209 213 211 216 226 242 225 209 198 193 195 195
308 307 306 305 305 305 305 304 304 304 303 303 300 295 289 284 280 275 270 266 263 262 262 262 264 265 264 264 261 250 240 226 219 229 235 236 226 206 206 209 211 210 204 201 200 200 202 196 198 207 212 220 223 230 237 240 253 259 268 275 272 263 254 268 241 205 188 186 182 169 170 188 204 209 218 203 201 211 217 226 237 244 220 208 201 193 194 197
306 306 305 304 304 304 303 303 303 303 304 303 302 298 294 290 284 279 275 271 266 263 261 261 262 262 264 265 218 200 242 238 231 238 241 243 232 196 188 193 204 211 207 204 202 199 201 194 195 207 210 216 219 225 233 233 247 251 256 265 269 272 252 244 224 193 187 190 182 175 172 182 201 209 217 209 207 212 216 229 240 239 219 208 204 195 195 197
306 305 304 304 303 302 301 301 300 301 302 302 301 297 297 293 286 282 279 273 267 265 264 262 262 261 262 253 155 201 237 233 234 247 255 253 240 204 183 177 193 209 208 203 200 198 200 194 195 206 206 211 215 222 231 232 240 241 248 253 261 282 247 200 225 195 187 189 186 192 185 182 196 207 214 212 215 220 220 228 235 236 221 211 204 198 198 199
305 304 304 304 303 302 300 299 298 299 301 302 300 298 296 290 286 285 282 276 271 269 267 264 262 263 263 246 187 225 234 235 244 258 266 265 255 227 195 181 184 203 209 203 197 195 198 196 198 207 205 206 212 218 228 233 234 235 252 252 248 270 238 218 261 213 194 185 187 203 198 184 195 206 213 213 215 221 226 232 235 239 232 219 206 198 200 199
303 303 303 303 302 302 300 299 297 297 300 300 298 298 295 287 285 286 284 282 277 272 269 266 265 265 267 262 235 238 238 241 246 235 243 255 255 244 219 193 184 198 206 202 196 191 191 195 201 208 207 205 210 214 223 234 234 231 245 251 243 244 242 257 237 200 197 189 187 205 199 178 192 206 212 214 215 218 226 234 236 244 244 227 212 198 200 201
300 300 300 300 300 300 299 298 296 296 299 297 295 296 293 289 289 288 286 282 277 274 270 269 267 267 269 271 251 238 239 240 230 217 225 240 246 242 235 214 195 197 203 200 198 191 188 193 203 209 208 207 209 212 225 234 231 226 231 241 241 237 249 269 220 187 199 202 189 200 207 186 190 202 206 208 214 217 224 232 237 246 250 232 216 200 200 206
297 297 297 298 298 298 298 297 295 296 296 296 293 291 289 289 289 287 284 279 276 273 270 270 269 268 268 269 253 228 213 219 213 207 211 226 233 229 232 221 201 203 210 204 201 196 192 194 202 210 212 211 209 212 222 224 222 221 220 228 236 239 246 262 252 197 200 206 193 194 205 194 190 197 201 205 213 219 225 234 242 249 251 236 219 206 201 207
297 296 295 296 296 296 297 296 295 295 295 294 291 290 289 287 286 283 279 276 274 271 268 268 265 264 260 259 258 220 205 200 196 198 203 216 220 215 220 212 199 208 221 214 204 199 198 199 203 210 212 211 210 212 217 218 220 221 217 225 235 243 242 235 249 218 201 203 195 194 198 191 190 194 198 204 212 219 225 231 240 245 246 240 222 211 206 209
298 297 295 295 295 295 295 295 295 295 293 290 287 288 288 288 286 280 275 273 274 273 268 268 269 269 263 254 242 214 208 205 196 187 185 203 209 205 208 202 195 213 224 217 207 199 199 206 209 210 208 207 210 213 218 219 223 225 224 231 237 246 242 219 240 241 211 205 195 194 196 190 193 197 199 205 210 215 219 223 233 238 240 241 231 217 211 212
298 297 296 295 295 295 295 294 295 294 292 290 286 286 286 288 286 281 279 273 270 272 271 271 272 271 268 254 226 207 204 206 201 183 170 187 206 203 203 197 194 209 219 214 209 203 207 216 214 211 208 206 209 213 218 221 224 229 231 235 240 247 241 226 251 255 216 207 197 194 195 190 194 198 201 206 207 211 217 220 229 237 241 242 239 230 216 213
299 297 295 295 295 295 294 292 292 293 292 290 289 291 291 290 291 290 289 281 265 265 270 269 269 270 272 261 221 205 209 208 203 191 177 185 207 213 207 202 199 204 209 207 212 215 219 225 218 212 212 209 211 211 215 222 223 228 231 237 243 242 242 242 259 258 215 207 199 193 196 196 197 199 201 206 209 214 221 225 231 241 243 240 240 241 226 218
300 298 296 294 293 293 293 290 288 291 291 290 292 294 293 293 293 291 289 286 276 266 269 266 266 267 266 263 225 208 217 213 201 195 186 187 205 216 215 213 208 204 204 204 212 217 221 228 221 214 215 213 215 212 212 220 225 229 229 235 240 236 246 253 254 257 217 207 206 201 201 201 197 197 201 205 213 217 221 228 235 245 247 244 244 246 239 229
303 301 297 294 292 292 294 290 287 288 287 288 292 293 293 294 291 286 285 288 284 273 272 270 265 262 261 262 237 217 220 219 209 199 191 191 200 211 219 221 212 206 203 202 210 220 224 228 222 217 218 214 214 212 211 218 224 230 229 231 236 234 245 250 246 265 235 214 213 202 196 193 190 192 197 202 211 217 218 222 230 239 242 245 246 244 245 241
307 304 300 297 293 291 293 291 287 285 285 286 288 288 291 291 290 290 293 296 289 280 278 276 266 262 254 244 237 226 220 223 220 204 196 198 199 209 218 217 212 209 206 201 209 224 228 227 223 220 221 215 215 216 212 215 224 231 229 228 231 234 242 245 243 263 253 222 214 199 189 188 192 195 198 199 204 210 214 218 225 232 231 234 239 239 242 244
311 309 305 302 297 292 292 292 288 281 282 283 281 283 288 288 287 292 298 302 294 287 287 282 267 255 244 234 232 223 217 228 227 208 201 201 199 208 217 214 213 215 213 206 212 227 230 227 222 219 223 218 216 221 215 213 226 233 226 223 229 235 242 244 244 255 252 229 216 203 203 200 193 198 203 202 203 205 211 218 223 226 224 227 235 238 239 241
312 312 309 308 304 299 294 291 287 280 278 278 276 278 280 279 282 289 298 306 297 290 285 275 254 238 233 224 222 215 216 232 224 209 208 207 201 206 216 218 217 217 215 208 215 227 227 226 224 218 223 224 217 220 217 211 224 231 223 220 229 236 241 244 247 256 257 248 239 215 210 208 195 200 206 206 205 204 210 217 218 220 223 229 234 237 239 241
309 310 309 311 310 306 303 292 286 282 279 274 270 271 269 269 275 283 293 301 295 291 272 246 216 219 214 204 212 216 223 231 219 215 215 210 203 205 214 220 220 220 212 206 217 226 222 221 223 217 220 227 222 222 219 211 219 227 223 222 228 234 241 247 251 258 258 253 253 234 218 215 204 202 203 204 205 206 210 213 214 219 227 231 231 233 238 242
305 306 306 310 310 311 312 299 290 286 279 271 266 265 260 258 259 258 248 239 258 257 246 229 208 216 212 205 210 214 223 227 224 224 212 205 204 206 214 218 219 224 218 213 222 228 225 223 224 220 221 226 226 226 224 216 219 226 227 228 230 234 240 247 253 257 255 244 242 240 224 221 223 202 198 197 203 209 215 217 220 228 232 229 226 230 236 240
299 300 302 305 306 309 312 303 295 290 281 272 267 262 255 249 239 218 206 234 249 248 237 228 222 226 218 211 211 210 219 224 223 210 201 204 204 203 213 221 220 226 225 223 227 230 231 228 226 226 226 226 225 227 227 223 225 230 228 231 236 240 241 246 253 255 256 237 235 242 225 216 229 205 198 200 208 216 220 222 226 231 230 225 225 231 235 236
296 296 298 303 303 304 307 303 295 292 285 273 266 259 251 241 222 206 221 240 247 247 215 211 225 234 234 226 221 215 215 218 217 203 193 201 201 198 206 215 216 221 225 225 229 231 230 226 224 226 229 228 227 228 229 228 230 229 224 227 234 240 242 247 253 249 249 233 241 248 227 213 215 209 205 208 217 223 225 226 226 227 224 222 227 233 232 232
295 293 295 300 301 302 303 300 293 289 283 272 264 252 238 226 220 219 216 222 258 247 205 201 216 232 248 247 236 227 218 215 213 203 194 198 200 200 203 206 207 211 217 220 223 228 230 226 222 222 225 226 225 227 228 226 228 226 222 221 222 230 236 242 248 240 232 241 249 253 232 214 216 220 218 216 220 227 231 231 229 227 225 225 229 231 228 229
293 293 294 296 300 301 297 294 288 280 276 266 255 240 222 213 227 230 221 211 215 175 184 199 195 199 234 242 234 232 228 222 210 200 199 205 207 206 207 209 210 210 214 217 218 223 230 232 227 224 225 222 221 224 223 221 222 221 218 215 211 204 207 224 232 239 236 240 248 250 238 217 216 222 227 229 232 236 235 233 233 232 230 229 229 229 227 228
293 293 293 295 298 297 290 285 279 272 269 258 244 227 216 217 230 237 235 229 222 209 226 244 226 207 212 229 233 231 227 226 210 200 202 211 213 210 209 211 213 216 218 218 219 219 223 230 226 222 221 216 217 222 222 222 222 221 219 216 216 216 211 211 215 208 213 226 237 237 227 205 211 223 232 236 240 242 238 238 239 236 232 229 228 229 230 231
297 294 295 299 297 289 281 274 267 261 257 249 236 223 218 222 224 222 241 236 229 238 248 256 263 253 238 225 227 232 231 231 218 206 207 214 217 214 212 212 212 215 217 217 219 219 222 230 225 218 217 216 217 221 224 225 223 221 219 218 220 223 222 224 244 232 223 220 228 223 212 216 230 241 247 243 240 238 239 240 236 231 229 225 225 229 232 234
303 297 297 302 291 279 273 265 259 253 248 241 231 227 227 227 225 221 213 205 226 247 251 256 268 267 254 237 225 236 239 235 228 217 213 216 221 220 217 216 215 215 215 215 217 215 220 232 231 222 219 219 217 218 221 224 222 217 215 217 221 225 226 232 254 249 238 235 235 229 225 227 233 243 248 245 239 235 235 235 230 228 226 222 222 227 231 234
312 306 304 300 282 273 270 261 254 248 243 236 232 233 236 234 231 227 219 215 232 259 274 278 275 263 262 250 227 226 237 232 229 225 219 218 223 224 220 220 221 220 218 217 220 221 223 236 237 230 226 221 214 216 223 226 227 219 212 215 220 223 226 230 236 240 232 231 235 234 234 226 221 228 232 230 232 232 231 230 229 228 223 220 223 226 229 232
319 318 319 305 277 266 260 254 248 243 237 233 234 237 239 239 237 235 232 230 237 255 276 284 279 274 275 266 243 226 234 240 227 223 225 224 225 228 224 221 223 225 224 221 222 226 229 240 244 236 231 223 213 217 225 227 229 227 219 216 215 212 214 218 219 216 217 228 247 234 237 234 226 223 219 216 222 231 230 227 228 225 218 218 223 225 229 231
324 325 332 304 264 248 240 242 241 238 232 228 234 239 240 243 244 242 240 237 239 252 269 278 277 278 271 267 269 263 268 283 258 235 239 233 229 233 232 224 221 223 226 223 222 224 226 233 242 237 230 224 217 220 224 223 224 227 228 223 217 218 218 213 216 216 205 210 237 229 235 236 232 230 227 224 228 234 235 229 223 219 216 218 222 224 228 229
325 328 339 279 250 238 230 234 235 232 230 231 237 241 245 249 248 245 242 239 239 246 261 269 268 273 273 273 276 275 278 286 281 275 272 249 234 236 235 228 222 221 223 225 226 226 223 228 237 233 226 225 223 222 220 219 219 218 221 222 217 218 221 219 222 222 213 200 190 204 230 237 236 236 234 234 234 239 247 238 224 216 217 220 222 225 228 228
323 328 341 252 244 238 228 229 229 227 229 236 241 244 249 254 255 257 254 246 241 241 249 261 266 269 275 278 277 278 285 288 285 281 277 261 238 235 233 228 225 222 218 219 223 224 221 224 233 231 229 230 228 226 223 220 220 217 217 220 220 216 211 210 223 222 217 219 210 200 238 241 239 239 237 239 241 244 253 243 226 217 219 221 222 226 228 228
320 325 334 246 246 244 233 226 220 218 224 231 240 246 253 259 261 268 270 257 248 242 244 255 264 268 274 277 275 278 282 283 284 280 274 264 242 228 229 229 228 227 221 218 222 226 224 224 229 232 233 234 231 228 227 224 223 220 219 221 223 221 217 211 210 211 215 223 227 230 249 244 237 235 234 237 240 244 249 237 223 221 224 224 223 226 228 226
319 325 335 243 263 267 247 233 222 220 226 227 232 241 246 250 254 256 261 261 255 252 251 255 261 267 272 276 276 278 278 276 276 271 271 271 248 224 231 236 228 227 225 222 222 222 221 220 223 229 233 236 236 232 230 228 223 219 220 221 221 222 223 224 225 224 222 225 224 225 244 243 235 230 230 239 243 245 242 231 227 233 235 230 223 222 225 224
319 323 327 271 295 299 276 255 243 241 244 239 241 247 241 239 244 250 256 261 259 260 262 262 266 268 269 273 272 270 270 271 273 266 265 273 254 232 242 249 236 227 223 223 223 218 215 215 216 219 228 236 239 239 235 229 222 218 218 218 219 220 224 228 230 230 235 236 227 219 235 241 239 235 236 242 245 246 235 231 238 241 237 231 223 219 222 224
321 321 317 308 311 304 280 300 300 274 264 262 263 265 252 241 239 244 255 257 253 258 264 263 270 274 272 273 266 262 259 257 266 269 262 264 257 245 247 245 240 236 221 222 229 223 218 216 213 209 206 215 224 230 229 224 221 220 217 215 216 218 220 224 226 224 229 235 232 230 237 243 241 239 239 240 239 242 241 246 258 246 230 227 225 219 218 222
321 322 324 325 325 302 240 261 304 300 295 292 281 273 267 261 249 241 251 259 254 261 268 264 271 280 279 279 271 268 267 253 255 274 272 263 258 251 245 239 239 240 223 211 220 218 217 217 216 214 215 218 221 226 227 223 221 221 217 214 214 216 219 222 223 224 225 229 234 237 241 248 241 231 233 239 240 244 247 253 275 256 229 222 225 222 219 223
317 319 327 329 329 321 239 250 288 300 314 319 302 287 283 280 267 249 250 261 262 266 269 264 271 287 286 289 285 281 282 262 251 265 274 263 258 255 247 243 250 253 238 225 218 216 220 220 218 218 220 222 226 230 232 229 226 223 219 215 215 215 217 218 220 226 227 223 232 237 240 247 246 234 234 241 244 248 251 252 259 253 228 220 222 224 222 225
311 312 321 321 314 310 306 300 298 301 310 317 308 299 295 293 288 264 255 260 258 262 277 272 272 284 279 281 292 293 295 282 263 265 271 263 260 260 252 246 254 261 254 243 235 241 257 243 223 218 221 225 225 227 231 231 230 227 220 216 215 215 215 216 220 227 229 227 233 238 239 242 247 248 244 241 243 247 251 249 239 228 222 220 221 223 223 226
308 309 313 310 302 306 310 311 311 308 309 315 311 303 300 299 294 273 268 272 256 250 278 285 278 291 278 266 279 290 295 298 285 276 274 267 265 267 263 257 254 252 254 253 244 246 278 269 235 218 218 223 224 223 229 232 230 228 223 218 216 215 216 218 220 224 230 234 239 242 242 242 245 249 244 234 237 244 249 245 227 214 213 218 219 221 223 224
307 306 309 306 301 305 308 309 314 309 303 311 316 307 304 305 296 275 262 268 264 257 269 286 285 298 296 277 277 282 286 295 293 285 283 278 270 271 278 275 259 242 240 245 239 246 282 277 249 224 215 217 222 221 224 231 229 224 223 220 218 218 217 217 219 222 227 233 237 240 241 242 242 246 247 243 242 245 247 246 231 220 216 215 215 219 223 224
305 302 303 303 301 305 308 306 310 307 302 311 318 306 298 301 306 297 271 258 263 268 276 294 294 288 290 288 285 284 284 289 289 285 286 283 275 271 276 282 280 264 256 250 239 256 300 287 250 231 215 211 217 219 220 227 230 225 222 220 219 218 214 212 215 218 224 231 233 234 236 237 239 242 247 249 249 251 251 251 242 224 216 213 214 219 224 225
300 297 296 296 296 302 307 305 305 306 306 310 309 301 299 302 312 316 296 271 257 258 270 300 308 291 282 282 287 289 285 284 283 281 279 277 274 271 268 274 290 284 274 281 278 271 300 301 272 264 230 211 211 217 218 221 228 230 226 221 216 215 213 212 215 216 220 229 234 236 237 236 235 238 244 248 249 253 256 254 250 230 214 213 217 221 222 218
Height
3165 3164 3163 3162 3162 3161 3161 3160 3160 3159 3159 3159 3158 3158 3157 3157 3156 3156 3155 3154 3153 3152 3151 3151 3150 3150 3149 3148 3149 3149 3149 3150 3150 3150 3151 3152 3151 3151 3153 3155 3158 3160 3163 3165 3167 3169 3171 3172 3174 3174 3174 3175 3175 3176 3176 3176 3174 3172 3172 3173 3172 3172 3173 3174 3175 3175 3176 3176 3176 3176 3175 3175 3175 3177 3177 3178 3179 3180 3179 3180 3180 3180 3181 3182 3183 3183 3182 3182
3162 3162 3161 3160 3159 3159 3158 3158 3157 3157 3157 3156 3156 3156 3155 3155 3154 3154 3153 3152 3152 3151 3150 3149 3149 3148 3147 3147 3147 3147 3147 3147 3147 3148 3148 3148 3148 3149 3151 3153 3155 3157 3160 3163 3166 3168 3170 3171 3172 3172 3173 3174 3175 3175 3175 3174 3173 3171 3172 3172 3170 3170 3171 3173 3174 3174 3175 3176 3176 3176 3175 3174 3174 3176 3177 3178 3179 3179 3178 3179 3179 3180 3180 3181 3182 3183 3183 3183
3160 3159 3158 3157 3157 3156 3155 3155 3155 3154 3154 3154 3154 3153 3153 3153 3152 3152 3151 3151 3150 3149 3148 3148 3147 3147 3146 3145 3145 3145 3145 3145 3145 3146 3145 3146 3147 3147 3149 3150 3152 3155 3158 3161 3164 3166 3168 3169 3170 3170 3172 3172 3173 3174 3174 3173 3172 3171 3172 3170 3168 3169 3170 3171 3172 3173 3174 3175 3175 3176 3175 3174 3174 3174 3176 3177 3178 3178 3177 3178 3179 3179 3180 3180 3181 3182 3183 3184
3158 3157 3156 3155 3154 3153 3153 3152 3152 3152 3152 3151 3151 3151 3151 3150 3150 3150 3149 3149 3148 3147 3147 3146 3146 3145 3144 3144 3144 3143 3143 3143 3143 3144 3144 3144 3145 3145 3146 3148 3151 3153 3156 3159 3161 3163 3165 3166 3167 3168 3169 3170 3172 3172 3172 3172 3171 3171 3170 3167 3167 3168 3169 3171 3171 3171 3173 3174 3174 3175 3175 3174 3174 3173 3174 3176 3176 3176 3177 3178 3178 3179 3179 3180 3181 3182 3183 3184
3157 3156 3154 3153 3152 3151 3151 3150 3149 3149 3148 3148 3148 3148 3148 3148 3148 3147 3147 3147 3146 3145 3145 3145 3144 3143 3142 3142 3142 3142 3142 3142 3142 3142 3142 3143 3143 3143 3145 3147 3149 3152 3154 3155 3158 3160 3162 3164 3165 3166 3167 3168 3170 3169 3169 3171 3171 3170 3168 3166 3167 3168 3169 3171 3171 3171 3172 3173 3173 3173 3173 3173 3173 3172 3173 3173 3173 3174 3176 3178 3179 3179 3180 3181 3181 3182 3183 3184
3155 3154 3153 3152 3151 3150 3149 3148 3147 3146 3146 3145 3145 3145 3145 3145 3145 3145 3145 3144 3144 3143 3143 3143 3143 3142 3141 3140 3140 3141 3141 3141 3141 3142 3142 3142 3142 3142 3143 3145 3148 3149 3151 3153 3155 3158 3160 3161 3162 3163 3165 3166 3167 3167 3168 3169 3170 3168 3165 3165 3165 3166 3168 3170 3172 3171 3170 3172 3172 3171 3172 3173 3173 3172 3172 3172 3172 3173 3176 3178 3179 3180 3181 3182 3182 3182 3183 3184
3153 3152 3151 3150 3149 3148 3147 3146 3145 3144 3143 3143 3142 3142 3142 3142 3142 3142 3142 3142 3142 3141 3141 3141 3141 3140 3139 3138 3139 3139 3139 3140 3140 3140 3141 3142 3142 3142 3142 3144 3145 3147 3149 3150 3153 3155 3157 3159 3160 3162 3164 3164 3165 3166 3166 3168 3168 3165 3163 3164 3165 3165 3167 3170 3171 3170 3169 3170 3171 3171 3171 3172 3172 3171 3172 3172 3173 3174 3176 3179 3180 3181 3181 3182 3182 3183 3183 3184
3151 3150 3149 3148 3147 3146 3145 3144 3143 3142 3141 3140 3140 3139 3139 3139 3139 3139 3139 3139 3139 3139 3139 3139 3138 3138 3137 3137 3136 3137 3138 3137 3137 3138 3140 3141 3142 3142 3142 3142 3143 3145 3147 3149 3151 3153 3155 3156 3158 3161 3161 3162 3164 3164 3165 3166 3165 3163 3163 3164 3165 3165 3166 3168 3170 3168 3168 3169 3170 3171 3171 3172 3172 3171 3172 3172 3173 3175 3176 3178 3180 3180 3181 3182 3182 3183 3184 3185
3149 3148 3147 3146 3145 3144 3143 3142 3141 3140 3139 3138 3138 3137 3136 3136 3136 3136 3136 3136 3136 3136 3136 3136 3136 3136 3136 3135 3134 3135 3136 3136 3135 3136 3137 3138 3140 3141 3141 3142 3142 3143 3145 3147 3149 3151 3152 3154 3157 3159 3160 3161 3163 3162 3164 3163 3161 3162 3163 3164 3165 3164 3164 3167 3169 3167 3167 3168 3169 3170 3170 3171 3172 3172 3172 3172 3173 3174 3176 3178 3179 3180 3181 3182 3182 3183 3184 3184
3147 3146 3145 3144 3143 3142 3141 3140 3140 3139 3138 3137 3136 3135 3134 3133 3133 3133 3133 3133 3133 3133 3133 3134 3133 3133 3133 3133 3133 3133 3134 3134 3134 3134 3134 3135 3137 3139 3140 3140 3141 3141 3143 3145 3147 3148 3150 3153 3157 3159 3159 3160 3160 3160 3162 3161 3159 3161 3162 3163 3163 3162 3162 3165 3167 3167 3166 3166 3167 3168 3170 3170 3170 3171 3172 3172 3173 3174 3175 3177 3178 3179 3180 3181 3182 3182 3183 3184
3145 3144 3143 3142 3141 3140 3139 3138 3138 3137 3136 3135 3134 3133 3132 3131 3130 3130 3130 3130 3130 3130 3130 3131 3130 3130 3131 3130 3130 3131 3132 3132 3133 3133 3133 3133 3134 3136 3137 3138 3139 3140 3141 3142 3144 3146 3149 3153 3156 3157 3157 3157 3158 3159 3159 3159 3158 3160 3161 3160 3160 3160 3161 3163 3164 3166 3165 3165 3166 3167 3169 3168 3168 3169 3170 3172 3174 3174 3175 3176 3177 3179 3179 3180 3181 3182 3182 3183
3143 3142 3141 3140 3139 3138 3137 3136 3135 3135 3134 3133 3132 3131 3130 3129 3128 3127 3127 3127 3127 3127 3127 3127 3127 3127 3127 3127 3128 3130 3130 3130 3131 3131 3131 3132 3133 3133 3134 3136 3137 3139 3140 3141 3143 3146 3148 3151 3153 3154 3154 3156 3157 3157 3157 3158 3158 3158 3160 3159 3158 3158 3159 3159 3160 3162 3163 3163 3165 3167 3168 3166 3165 3167 3169 3171 3173 3174 3175 3175 3176 3177 3178 3179 3180 3181 3182 3182
3141 3140 3139 3138 3137 3136 3134 3133 3133 3132 3132 3131 3130 3129 3128 3127 3126 3124 3124 3125 3124 3123 3124 3124 3124 3124 3124 3124 3126 3128 3128 3128 3129 3128 3129 3130 3131 3131 3131 3133 3136 3138 3139 3140 3142 3144 3147 3149 3151 3152 3154 3154 3154 3155 3155 3156 3157 3157 3159 3158 3156 3155 3155 3156 3157 3160 3161 3161 3162 3164 3166 3165 3164 3165 3167 3169 3172 3173 3174 3174 3175 3176 3177 3178 3179 3180 3181 3182
3138 3137 3136 3135 3134 3133 3132 3131 3130 3129 3129 3129 3128 3126 3125 3124 3122 3121 3122 3122 3121 3120 3121 3121 3121 3121 3121 3122 3124 3126 3125 3125 3125 3125 3126 3128 3129 3130 3129 3130 3134 3136 3137 3139 3141 3143 3146 3148 3150 3151 3152 3152 3153 3154 3154 3154 3155 3155 3156 3155 3155 3154 3153 3154 3158 3159 3160 3160 3160 3161 3163 3163 3162 3163 3165 3167 3169 3171 3172 3173 3173 3175 3176 3177 3177 3179 3180 3181
3136 3135 3133 3132 3132 3131 3130 3128 3127 3127 3127 3126 3125 3124 3123 3121 3119 3119 3119 3119 3119 3118 3118 3118 3118 3117 3117 3120 3123 3123 3121 3121 3123 3125 3125 3125 3126 3128 3128 3129 3131 3134 3136 3138 3139 3141 3144 3146 3147 3148 3149 3150 3152 3153 3152 3152 3153 3154 3154 3153 3153 3154 3151 3152 3154 3155 3156 3158 3159 3160 3161 3162 3162 3162 3164 3165 3168 3169 3171 3172 3173 3174 3175 3176 3176 3177 3178 3179
3133 3132 3131 3130 3129 3128 3127 3126 3124 3124 3124 3123 3122 3122 3120 3117 3117 3117 3117 3117 3116 3116 3116 3115 3115 3115 3114 3117 3119 3119 3119 3120 3122 3123 3123 3122 3124 3126 3127 3128 3130 3133 3135 3136 3138 3139 3142 3143 3144 3145 3146 3148 3149 3150 3151 3151 3151 3152 3153 3151 3151 3152 3151 3151 3152 3152 3154 3156 3158 3159 3160 3161 3161 3162 3163 3164 3166 3168 3169 3171 3172 3173 3174 3174 3175 3176 3177 3178
3131 3130 3129 3128 3126 3125 3124 3123 3121 3121 3122 3120 3119 3119 3117 3115 3115 3115 3114 3114 3113 3113 3112 3112 3112 3112 3112 3114 3116 3117 3118 3119 3120 3120 3121 3121 3122 3124 3125 3126 3128 3131 3133 3135 3136 3137 3139 3140 3141 3142 3143 3144 3146 3148 3149 3148 3147 3149 3150 3150 3150 3150 3150 3151 3153 3154 3153 3154 3155 3157 3159 3158 3158 3160 3161 3162 3164 3166 3168 3169 3170 3172 3173 3173 3174 3175 3175 3176
3128 3127 3126 3125 3124 3123 3121 3120 3119 3118 3119 3117 3116 3115 3114 3113 3112 3111 3110 3110 3110 3110 3109 3109 3109 3109 3110 3111 3112 3114 3115 3115 3116 3118 3119 3120 3121 3123 3123 3125 3127 3129 3132 3133 3134 3135 3136 3137 3139 3140 3140 3140 3142 3144 3144 3143 3144 3147 3149 3149 3149 3149 3149 3149 3152 3153 3153 3152 3153 3154 3156 3156 3156 3158 3159 3161 3163 3164 3166 3167 3169 3170 3172 3173 3173 3173 3174 3175
3124 3123 3123 3122 3121 3120 3119 3117 3116 3116 3116 3115 3113 3111 3111 3110 3109 3108 3106 3105 3106 3106 3106 3106 3105 3106 3108 3109 3110 3111 3111 3111 3112 3114 3116 3118 3119 3121 3122 3124 3125 3127 3129 3129 3130 3132 3134 3135 3135 3134 3133 3135 3137 3139 3140 3142 3145 3147 3148 3149 3148 3148 3148 3148 3150 3152 3152 3151 3151 3151 3153 3154 3154 3156 3157 3159 3161 3162 3164 3166 3167 3168 3170 3171 3172 3172 3173 3174
3120 3120 3120 3119 3118 3117 3116 3115 3113 3113 3112 3111 3110 3109 3108 3107 3106 3104 3101 3102 3103 3102 3102 3102 3102 3102 3104 3108 3109 3109 3109 3109 3110 3111 3113 3116 3117 3118 3120 3121 3123 3125 3125 3126 3127 3129 3131 3131 3128 3126 3128 3132 3136 3138 3140 3143 3145 3146 3147 3147 3146 3146 3146 3146 3149 3152 3151 3150 3149 3150 3151 3151 3152 3152 3154 3156 3159 3161 3163 3164 3164 3166 3167 3169 3170 3171 3172 3173
3117 3116 3116 3116 3116 3114 3113 3112 3111 3110 3109 3108 3107 3107 3106 3105 3102 3099 3096 3097 3100 3099 3098 3100 3099 3098 3100 3105 3108 3107 3107 3107 3107 3108 3109 3112 3115 3115 3116 3118 3119 3120 3121 3124 3126 3128 3128 3124 3122 3124 3129 3133 3135 3138 3140 3142 3143 3144 3145 3145 3144 3144 3144 3143 3147 3151 3150 3148 3148 3149 3150 3150 3150 3151 3152 3154 3156 3158 3159 3161 3162 3163 3164 3166 3168 3170 3171 3172
3114 3113 3112 3113 3112 3112 3110 3109 3108 3107 3106 3105 3104 3105 3104 3102 3100 3097 3092 3090 3095 3097 3095 3097 3096 3094 3097 3101 3104 3105 3103 3102 3105 3106 3106 3108 3111 3112 3113 3114 3114 3116 3119 3122 3123 3124 3122 3118 3120 3126 3130 3132 3134 3136 3138 3140 3141 3142 3142 3143 3142 3142 3142 3142 3144 3149 3149 3146 3146 3148 3148 3147 3148 3149 3149 3150 3152 3154 3156 3157 3159 3161 3162 3164 3166 3168 3169 3171
3111 3109 3109 3109 3109 3109 3108 3106 3105 3104 3102 3102 3102 3102 3101 3100 3098 3095 3091 3086 3088 3092 3092 3093 3092 3091 3093 3096 3100 3099 3096 3098 3102 3103 3103 3103 3106 3109 3110 3111 3112 3114 3117 3117 3118 3118 3116 3116 3120 3126 3128 3130 3132 3134 3136 3138 3139 3139 3140 3140 3139 3138 3141 3141 3142 3146 3148 3146 3145 3145 3146 3146 3147 3148 3148 3148 3149 3151 3153 3155 3157 3159 3160 3161 3163 3165 3167 3168
3108 3106 3105 3105 3106 3106 3105 3103 3103 3101 3100 3100 3101 3100 3098 3098 3095 3092 3090 3085 3081 3084 3088 3089 3087 3087 3090 3093 3094 3093 3092 3096 3098 3099 3100 3100 3102 3106 3107 3108 3110 3111 3112 3113 3115 3115 3114 3116 3121 3124 3126 3128 3129 3131 3133 3134 3135 3136 3136 3137 3136 3135 3138 3140 3140 3144 3147 3146 3144 3143 3145 3146 3146 3147 3147 3148 3149 3150 3151 3154 3155 3156 3157 3159 3161 3163 3164 3166
3105 3103 3102 3101 3102 3102 3102 3100 3099 3099 3097 3098 3098 3097 3096 3096 3093 3089 3088 3084 3077 3078 3083 3083 3082 3083 3086 3087 3087 3088 3091 3092 3092 3096 3097 3097 3100 3103 3104 3107 3107 3107 3108 3111 3114 3113 3113 3117 3120 3122 3123 3125 3126 3127 3129 3130 3132 3132 3132 3133 3133 3133 3137 3139 3139 3143 3145 3144 3143 3142 3144 3145 3145 3145 3145 3147 3148 3149 3150 3151 3152 3153 3156 3157 3158 3160 3161 3163
3102 3101 3099 3098 3097 3099 3100 3097 3096 3096 3094 3095 3095 3095 3094 3093 3091 3089 3088 3084 3075 3073 3077 3077 3077 3079 3079 3081 3083 3086 3087 3084 3087 3094 3095 3095 3098 3100 3102 3104 3104 3105 3107 3111 3113 3111 3110 3115 3118 3119 3120 3122 3123 3123 3125 3128 3130 3128 3127 3130 3132 3132 3136 3137 3137 3140 3143 3141 3141 3141 3141 3142 3143 3143 3143 3144 3145 3146 3147 3148 3149 3151 3152 3154 3155 3157 3158 3160
3098 3098 3096 3095 3093 3094 3097 3096 3093 3092 3092 3093 3092 3093 3093 3090 3090 3089 3090 3087 3075 3071 3073 3073 3074 3074 3075 3078 3078 3080 3081 3080 3085 3090 3089 3092 3095 3097 3100 3100 3101 3102 3106 3110 3109 3104 3106 3111 3114 3115 3117 3118 3118 3119 3121 3125 3126 3122 3124 3130 3131 3131 3134 3134 3135 3137 3140 3140 3140 3139 3138 3137 3137 3138 3139 3140 3142 3143 3145 3145 3146 3147 3148 3150 3151 3153 3155 3156
3095 3094 3093 3093 3091 3090 3093 3093 3090 3090 3090 3089 3089 3090 3089 3089 3090 3089 3091 3089 3076 3069 3071 3071 3072 3072 3072 3074 3074 3076 3078 3078 3082 3083 3084 3090 3092 3094 3095 3096 3098 3100 3103 3105 3101 3099 3104 3107 3109 3111 3113 3113 3113 3116 3119 3123 3122 3119 3124 3130 3130 3130 3131 3133 3134 3134 3136 3138 3136 3136 3138 3135 3131 3133 3137 3138 3138 3140 3141 3141 3142 3142 3143 3145 3148 3149 3151 3153
3092 3091 3089 3091 3090 3088 3089 3087 3086 3088 3087 3086 3087 3087 3086 3088 3088 3089 3092 3087 3072 3067 3070 3069 3070 3070 3070 3071 3072 3074 3075 3077 3080 3081 3083 3087 3088 3090 3091 3093 3097 3099 3101 3101 3098 3099 3103 3104 3106 3109 3109 3109 3111 3115 3118 3120 3119 3120 3125 3128 3129 3130 3130 3131 3132 3131 3133 3133 3129 3131 3135 3133 3130 3130 3133 3135 3135 3135 3136 3137 3137 3138 3139 3141 3143 3146 3148 3150
3089 3088 3086 3086 3087 3087 3086 3084 3082 3084 3084 3083 3084 3084 3084 3085 3086 3089 3089 3079 3068 3067 3068 3068 3069 3068 3068 3069 3071 3072 3073 3075 3079 3080 3081 3083 3085 3088 3090 3093 3097 3098 3099 3099 3098 3099 3101 3103 3105 3106 3106 3107 3110 3113 3115 3117 3119 3121 3124 3126 3127 3128 3128 3129 3128 3129 3129 3125 3123 3126 3128 3129 3128 3126 3127 3128 3128 3130 3132 3133 3135 3137 3137 3138 3140 3142 3144 3146
3085 3084 3083 3083 3082 3084 3085 3082 3079 3080 3080 3080 3081 3082 3082 3083 3085 3084 3077 3068 3065 3066 3066 3068 3068 3066 3066 3068 3068 3069 3070 3073 3076 3077 3078 3080 3083 3085 3087 3090 3093 3095 3096 3095 3095 3096 3099 3101 3101 3102 3104 3107 3110 3111 3113 3115 3118 3119 3121 3124 3125 3125 3125 3125 3124 3125 3123 3119 3119 3122 3124 3124 3121 3120 3121 3122 3123 3125 3128 3129 3131 3132 3134 3135 3137 3139 3141 3143
3079 3079 3081 3080 3078 3079 3081 3080 3077 3076 3076 3076 3078 3079 3080 3081 3078 3071 3065 3064 3066 3064 3063 3066 3067 3066 3066 3066 3066 3067 3068 3070 3072 3074 3075 3076 3077 3078 3078 3080 3083 3086 3087 3088 3091 3093 3094 3095 3097 3099 3102 3104 3106 3107 3109 3111 3113 3115 3117 3120 3121 3121 3122 3121 3119 3118 3116 3114 3116 3118 3120 3117 3113 3114 3118 3119 3121 3123 3124 3125 3126 3127 3129 3131 3133 3135 3137 3139
3074 3073 3076 3077 3075 3075 3076 3075 3073 3071 3071 3073 3074 3075 3077 3077 3067 3058 3060 3065 3064 3061 3061 3062 3061 3062 3064 3063 3064 3065 3066 3067 3069 3071 3072 3074 3074 3073 3075 3077 3078 3080 3080 3083 3088 3090 3091 3092 3094 3096 3097 3098 3100 3101 3103 3104 3106 3108 3109 3112 3114 3115 3117 3116 3114 3113 3111 3111 3113 3115 3116 3111 3108 3110 3114 3116 3118 3119 3120 3121 3122 3124 3126 3128 3129 3131 3133 3135
3069 3068 3070 3073 3073 3070 3069 3070 3068 3066 3068 3069 3070 3071 3072 3067 3058 3055 3060 3062 3062 3060 3059 3059 3057 3057 3058 3060 3062 3063 3063 3065 3067 3068 3069 3070 3071 3070 3072 3074 3076 3078 3080 3084 3085 3086 3087 3086 3086 3088 3089 3091 3094 3095 3098 3101 3103 3103 3105 3109 3108 3106 3107 3109 3109 3109 3109 3109 3111 3112 3111 3105 3104 3106 3110 3113 3115 3115 3116 3117 3119 3121 3123 3125 3126 3127 3129 3131
3063 3063 3064 3068 3068 3063 3061 3062 3061 3062 3063 3064 3066 3066 3061 3055 3054 3057 3059 3060 3062 3058 3054 3053 3055 3054 3055 3057 3059 3060 3062 3062 3065 3066 3065 3065 3064 3064 3066 3069 3072 3076 3078 3080 3080 3082 3083 3079 3079 3083 3085 3087 3090 3092 3096 3099 3099 3101 3105 3104 3100 3098 3103 3106 3106 3107 3108 3108 3107 3106 3104 3102 3103 3104 3107 3111 3110 3111 3113 3114 3116 3119 3121 3122 3123 3124 3126 3128
3055 3057 3060 3063 3061 3056 3055 3056 3056 3057 3058 3060 3061 3056 3050 3049 3054 3057 3057 3058 3058 3055 3050 3050 3052 3053 3053 3054 3056 3058 3060 3061 3062 3063 3061 3061 3061 3061 3063 3066 3068 3071 3072 3074 3076 3078 3079 3075 3076 3082 3083 3084 3087 3089 3093 3094 3094 3097 3098 3095 3093 3099 3105 3107 3106 3105 3107 3106 3103 3100 3099 3100 3102 3102 3103 3107 3107 3108 3110 3111 3113 3115 3118 3119 3120 3121 3122 3124
3048 3050 3056 3058 3054 3051 3051 3051 3051 3052 3053 3054 3052 3046 3044 3048 3052 3053 3055 3055 3054 3054 3053 3051 3050 3051 3051 3052 3053 3055 3057 3059 3060 3059 3057 3058 3058 3057 3060 3063 3065 3068 3069 3072 3074 3075 3076 3074 3074 3079 3080 3081 3085 3088 3089 3090 3091 3091 3090 3091 3095 3101 3103 3104 3103 3103 3104 3102 3098 3096 3096 3098 3098 3098 3099 3102 3103 3104 3105 3107 3109 3112 3114 3115 3116 3118 3118 3119
3042 3044 3050 3052 3049 3048 3047 3046 3045 3046 3048 3046 3042 3040 3042 3045 3047 3050 3053 3055 3054 3053 3053 3052 3050 3049 3050 3049 3049 3051 3053 3054 3055 3056 3055 3054 3052 3052 3056 3059 3062 3065 3068 3071 3072 3073 3075 3073 3072 3075 3076 3079 3083 3085 3084 3084 3087 3087 3087 3091 3094 3094 3094 3096 3097 3097 3098 3099 3095 3093 3093 3093 3094 3094 3096 3098 3099 3100 3101 3103 3105 3108 3111 3112 3112 3114 3114 3116
3039 3041 3045 3047 3045 3043 3042 3040 3040 3042 3041 3038 3036 3037 3040 3041 3044 3048 3051 3052 3052 3050 3049 3050 3050 3048 3048 3048 3046 3047 3049 3050 3050 3052 3052 3050 3048 3048 3052 3055 3058 3061 3066 3069 3069 3070 3073 3072 3070 3071 3074 3076 3078 3077 3075 3077 3081 3085 3087 3088 3089 3088 3088 3090 3090 3090 3093 3095 3093 3092 3090 3087 3088 3092 3094 3095 3096 3098 3098 3099 3101 3104 3106 3107 3108 3110 3111 3113
3037 3038 3043 3042 3038 3036 3035 3036 3037 3037 3035 3032 3033 3036 3038 3039 3042 3044 3047 3049 3049 3047 3045 3046 3047 3045 3044 3045 3045 3045 3046 3047 3048 3048 3047 3046 3046 3046 3048 3051 3054 3058 3062 3065 3064 3066 3070 3069 3067 3069 3072 3071 3069 3067 3068 3071 3076 3078 3079 3080 3082 3083 3085 3086 3086 3085 3087 3090 3090 3090 3087 3083 3085 3090 3092 3093 3094 3096 3096 3096 3098 3100 3101 3102 3104 3107 3109 3110
3037 3036 3039 3038 3032 3029 3031 3033 3034 3033 3031 3031 3033 3035 3036 3038 3039 3041 3044 3045 3045 3045 3043 3043 3044 3042 3041 3042 3043 3044 3044 3043 3044 3045 3042 3042 3043 3044 3047 3049 3051 3054 3058 3060 3060 3061 3064 3065 3064 3065 3065 3062 3062 3064 3067 3069 3071 3072 3072 3073 3076 3079 3081 3081 3080 3080 3083 3084 3085 3086 3083 3080 3083 3088 3089 3091 3092 3093 3093 3093 3094 3096 3097 3099 3103 3105 3107 3108
3035 3034 3035 3033 3028 3026 3028 3030 3031 3031 3030 3031 3032 3034 3035 3037 3037 3039 3040 3041 3042 3042 3042 3041 3041 3041 3041 3040 3039 3042 3043 3040 3040 3041 3038 3038 3039 3040 3044 3049 3051 3052 3052 3052 3053 3056 3059 3060 3060 3060 3059 3058 3060 3064 3065 3066 3068 3070 3069 3070 3073 3076 3076 3076 3076 3078 3080 3080 3081 3082 3080 3077 3081 3086 3087 3088 3089 3090 3091 3091 3091 3093 3095 3097 3100 3103 3105 3107
3033 3032 3032 3030 3026 3023 3024 3026 3028 3029 3028 3029 3031 3032 3033 3034 3035 3036 3037 3038 3038 3039 3039 3038 3038 3038 3039 3039 3038 3039 3041 3037 3034 3035 3034 3034 3035 3036 3040 3044 3045 3047 3047 3046 3047 3052 3055 3054 3053 3055 3056 3056 3057 3060 3061 3062 3064 3064 3063 3066 3069 3070 3071 3073 3075 3076 3076 3075 3077 3080 3076 3072 3077 3083 3085 3086 3087 3088 3088 3089 3090 3091 3092 3094 3097 3100 3102 3104
3031 3030 3029 3028 3025 3023 3023 3025 3025 3025 3024 3025 3026 3026 3027 3028 3031 3033 3034 3035 3034 3034 3034 3034 3035 3036 3035 3035 3034 3034 3037 3034 3029 3030 3031 3029 3029 3031 3034 3035 3035 3038 3042 3042 3043 3046 3047 3046 3048 3051 3053 3053 3052 3052 3053 3054 3055 3054 3055 3060 3063 3065 3069 3071 3072 3074 3072 3070 3073 3076 3071 3068 3074 3082 3084 3084 3084 3086 3086 3088 3089 3089 3089 3092 3094 3097 3100 3102
3029 3027 3026 3027 3024 3023 3023 3024 3023 3022 3021 3021 3019 3020 3021 3023 3025 3028 3028 3028 3028 3030 3030 3030 3031 3031 3029 3029 3027 3027 3031 3030 3025 3024 3024 3023 3022 3023 3026 3028 3029 3030 3032 3035 3039 3040 3038 3037 3039 3040 3041 3041 3040 3039 3039 3043 3047 3049 3050 3054 3057 3061 3064 3065 3068 3069 3065 3066 3070 3071 3068 3070 3074 3078 3082 3082 3081 3082 3084 3086 3086 3086 3086 3089 3092 3095 3098 3100
3028 3025 3023 3022 3022 3021 3022 3023 3023 3022 3021 3019 3017 3018 3020 3020 3021 3022 3023 3023 3024 3026 3027 3027 3027 3027 3024 3023 3022 3022 3024 3024 3022 3020 3018 3018 3018 3018 3019 3021 3022 3024 3025 3027 3030 3031 3030 3029 3028 3028 3029 3031 3032 3034 3038 3042 3045 3046 3048 3050 3053 3056 3059 3061 3063 3060 3059 3064 3067 3065 3068 3072 3072 3074 3078 3079 3078 3079 3081 3083 3084 3083 3083 3088 3091 3093 3096 3097
3027 3026 3024 3021 3019 3020 3020 3022 3022 3021 3021 3020 3018 3018 3019 3019 3019 3019 3021 3022 3023 3024 3023 3023 3024 3024 3021 3020 3019 3017 3017 3018 3019 3018 3016 3014 3013 3011 3012 3015 3018 3020 3022 3025 3026 3025 3024 3022 3020 3022 3025 3028 3032 3037 3040 3042 3043 3044 3046 3047 3049 3052 3054 3056 3055 3054 3058 3063 3060 3061 3067 3070 3070 3072 3075 3075 3075 3076 3077 3081 3082 3081 3082 3087 3090 3092 3093 3095
3026 3025 3025 3023 3021 3020 3020 3020 3020 3019 3019 3019 3019 3018 3018 3017 3017 3018 3018 3018 3019 3020 3020 3020 3021 3021 3018 3017 3016 3014 3014 3014 3014 3014 3013 3012 3010 3007 3007 3010 3015 3017 3018 3021 3023 3023 3020 3016 3016 3019 3021 3024 3030 3034 3036 3038 3040 3041 3043 3044 3046 3048 3049 3050 3051 3053 3057 3057 3055 3060 3066 3066 3067 3071 3072 3073 3073 3073 3075 3078 3080 3081 3082 3085 3087 3088 3089 3091
3025 3023 3024 3023 3022 3020 3020 3019 3018 3018 3018 3018 3018 3017 3016 3016 3016 3017 3016 3015 3015 3017 3017 3016 3017 3016 3015 3015 3014 3013 3013 3012 3010 3010 3011 3010 3009 3008 3006 3005 3008 3013 3016 3016 3019 3020 3016 3012 3013 3016 3017 3020 3025 3028 3032 3034 3035 3038 3039 3040 3042 3044 3045 3047 3049 3051 3054 3053 3055 3061 3063 3062 3065 3068 3070 3072 3072 3072 3074 3075 3076 3078 3079 3080 3083 3084 3086 3089
3023 3022 3021 3020 3019 3019 3019 3018 3017 3016 3016 3016 3016 3015 3015 3015 3014 3014 3014 3014 3013 3014 3014 3014 3013 3012 3013 3013 3012 3011 3012 3012 3009 3008 3010 3009 3007 3009 3008 3004 3004 3008 3011 3013 3015 3016 3014 3011 3012 3014 3014 3015 3018 3022 3027 3028 3030 3034 3036 3037 3039 3041 3042 3044 3047 3049 3051 3052 3055 3058 3058 3059 3063 3066 3067 3070 3070 3070 3072 3073 3074 3075 3076 3078 3081 3083 3085 3086
3022 3021 3020 3018 3017 3017 3017 3016 3016 3014 3013 3014 3014 3013 3013 3013 3012 3011 3011 3012 3012 3012 3012 3012 3011 3010 3010 3010 3010 3009 3010 3010 3008 3007 3009 3008 3006 3007 3007 3005 3006 3005 3006 3009 3011 3011 3012 3010 3010 3012 3011 3009 3012 3018 3021 3024 3028 3030 3030 3032 3034 3036 3038 3041 3044 3047 3049 3050 3052 3053 3052 3054 3060 3063 3063 3065 3067 3068 3069 3071 3072 3072 3073 3076 3079 3081 3082 3083
3020 3020 3019 3017 3015 3015 3015 3014 3014 3013 3011 3012 3012 3011 3010 3010 3010 3010 3008 3008 3010 3010 3009 3009 3009 3008 3006 3006 3007 3007 3005 3005 3003 3004 3006 3006 3005 3006 3005 3005 3008 3007 3005 3007 3008 3008 3009 3009 3009 3011 3008 3004 3008 3014 3017 3022 3025 3020 3019 3025 3031 3032 3035 3039 3041 3044 3046 3047 3048 3046 3046 3051 3057 3059 3059 3060 3063 3065 3068 3070 3071 3071 3072 3075 3077 3078 3080 3081